Current Version              Previous Version:    01  02  03  04  05  06  07  08  09  10  11  12  13  14  15  16  17  18  19  20  21  22  23  24  25  26  27  28  29  30  
   31  32  33  34  35  36  37  38  39  40  41  42  43  44  45  46  47  48  49  50  51  52  53  54  55  56  57  58  59  60  

[Printable]
778
ASUS44 KFWD 201315
RWRTX
NORTH TEXAS HOURLY WEATHER ROUNDUP
NATIONAL WEATHER SERVICE FORT WORTH TX
800 AM CDT SAT SEP 20 2014

NOTE: "FAIR" INDICATES FEW OR NO CLOUDS BELOW 12,000 FEET WITH NO
SIGNIFICANT WEATHER AND/OR OBSTRUCTIONS TO VISIBILITY.

TXZ118-119-201400-
DALLAS/FORT WORTH METROPLEX

CITY           SKY/WX    TMP DP  RH WIND       PRES   REMARKS
DFW AIRPORT    MOCLDY    74  70  87 SE7       30.00R
DALLAS LOVE    MOCLDY    72  70  93 SE7       30.00R
FTW MEACHAM    MOCLDY    74  71  91 SE7       29.99R
DAL-EXECUTIVE  MOCLDY    73  70  90 SE5       30.00R FOG
FTW-ALLIANCE   PTCLDY    72  70  93 CALM      29.99R
FTW-NAS-JRB    MOCLDY    77  69  76 SE7       30.03R
FTW-SPINKS     MOCLDY    72  70  94 CALM      30.02R FOG
ARLINGTON      CLOUDY    74  70  87 E6        30.00R
GRAND PRAIRIE  MOCLDY    73  72  94 MISG      30.01R
ADDISON        PTCLDY    73  68  83 E6        30.01
MESQUITE       PTCLDY    70  70 100 E3        30.01R
LANCASTER      CLOUDY    70  68  94 CALM      30.01R FOG
$$

TXZ091>094-102>105-117-120-121-131>134-201400-
NORTH CENTRAL TEXAS

CITY           SKY/WX    TMP DP  RH WIND       PRES   REMARKS
SHRMAN/DENISON CLEAR     71  68  90 E3        30.03R FOG
GAINESVILLE    PTCLDY    70  69  96 E5        30.03R FOG
BOWIE          CLOUDY    71  69  96 SE3       30.02R FOG
BRIDGEPORT     PTCLDY    71  71 100 CALM      30.02R FOG
DECATUR        MOCLDY    72  70  96 SE5       30.01R FOG
DENTON         CLEAR     72  69  90 SE6       30.00R
MCKINNEY       MOCLDY    71  70  96 SE3       30.01R FOG
GREENVILLE     CLEAR     70  68  94 CALM      30.02R FOG
ROCKWALL       PTCLDY    72  70  95 E7        30.00R
TERRELL        CLEAR     73  71  93 E5        30.01R
WAXAHACHIE     CLEAR     70  69  96 CALM      30.01R FOG
CLEBURNE       CLOUDY    73  73 100 CALM      30.01S FOG
GRANBURY       CLOUDY    75  72  88 E8        30.00S
$$

TXZ083>090-098>101-113>116-127>130-139>142-154-155-201400-
WESTERN NORTH TEXAS

CITY           SKY/WX    TMP DP  RH WIND       PRES   REMARKS
WICHITA FALLS  CLEAR     71  69  93 SE9       29.99R FOG
WF-KICKAPOO    CLEAR     70  68  93 SE7       30.00R
VERNON         CLOUDY    72  68  87 CALM      30.00R
ABILENE        CLOUDY    74  70  87 SE10      30.00S
ABILENE-DYESS  CLOUDY    73  64  73 SE7       29.99R
BRECKENRIDGE   CLOUDY    75  72  91 SE5       29.99R
GRAHAM         CLOUDY    73  69  86 E5        29.99R
MINERAL WELLS  PTCLDY    72  70  93 SE3       29.98S FOG
STEPHENVILLE   CLOUDY    73  70  91 SE5       30.02S
COMANCHE       CLOUDY    73  73 100 E3        30.00R FOG
BROWNWOOD      MOCLDY    73  72  94 SE6       30.00R
COLEMAN        CLOUDY    73  71  92 SE5       30.00R
$$

TXZ143>147-156>162-174-175-201400-
CENTRAL TEXAS

CITY           SKY/WX    TMP DP  RH WIND       PRES   REMARKS
WACO           CLOUDY    74  72  93 SE3       29.99R
WACO-TSTC      PTCLDY    73  72  94 CALM      29.99R FOG
WACO-MCGREGOR  CLOUDY    73  70  88 SE6       30.00R
HILLSBORO      CLOUDY    73  70  91 E7        30.00R
CORSICANA      CLEAR     73  71  93 E3        30.01R
MEXIA          CLOUDY    72  71  98 CALM      29.99R
HEARNE         CLOUDY    73  72  94 CALM      29.98R
CAMERON        CLOUDY    73  73  99 E3        29.97R FOG
TEMPLE         CLOUDY    73  70  88 E6        29.98R
KILLEEN        MOCLDY    73  72  94 E7        29.98R
KILLEEN-SKYLRK CLOUDY    73  68  83 E6        29.98R
FORT HOOD      CLOUDY    76  72  87 E7        29.98R
GATESVILLE     CLOUDY    73  73 100 CALM      30.01R
HAMILTON       CLOUDY    74  74 100 E13       30.01R
LAMPASAS       DRIZZLE   73  72  97 E6        29.98R
$$

TXZ095>097-106>112-122>126-135>138-148>153-164>167-201400-
EAST TEXAS

CITY           SKY/WX    TMP DP  RH WIND       PRES   REMARKS
PARIS          CLOUDY    70  64  83 SE6       30.03S VSB 1
SULPHUR SPRNGS FOG       69  69  99 CALM      30.04S VSB<1/4
MOUNT PLEASANT SUNNY     70  70  99 CALM      30.04R
GILMER         SUNNY     72  72 100 CALM      30.04R FOG
MINEOLA        CLEAR     68  68 100 CALM      30.03R FOG
TYLER          SUNNY     71  68  90 NE3       30.01R FOG
LONGVIEW       SUNNY     71  68  90 CALM      30.01R FOG
MARSHALL       SUNNY     71  69  92 CALM      30.04R
ATHENS         CLEAR     68  68 100 CALM      30.00R
PALESTINE      CLEAR     72  71  96 CALM      30.01R
JACKSONVILLE   SUNNY     71  70  97 E3        30.03S FOG
HENDERSON      SUNNY     68  68 100 CALM      30.03R
NACOGDOCHES    SUNNY     66  64  94 CALM      30.02R
LUFKIN         SUNNY     73  69  87 CALM      30.00R
$$

SUPPLEMENTAL OBSERVATIONS (CENTRAL)

CITY           SKY/WX    TMP DP  RH WIND       PRES   REMARKS
LAKE TEXOMA      N/A     70  66  88 E3          N/A
ATHENS           N/A     73  70  88 SE3         N/A
PALESTINE        N/A     70  68  94 CALM        N/A
LAKE LIMESTONE   N/A     73  72  94 E3          N/A
MCGREGOR         N/A     73  70  88 E3          N/A
TEMPLE           N/A     73  72  94 E5          N/A
$$

SUPPLEMENTAL OBSERVATIONS (WEST)

CITY           SKY/WX    TMP DP  RH WIND       PRES   REMARKS
MILLERS CREEK    N/A     72  66  83 SE5         N/A
POSSUM KINGDOM   N/A     73  70  88 E6          N/A
GRANBURY         N/A     73  70  88 SE8         N/A
COMANCHE         N/A     73  72  94 SE7         N/A
HAMBY            N/A     73  68  83 SE3         N/A
IVIE RESERVOIR   N/A     72  68  88 E7          N/A
COLORADO BEND    N/A     73  70  88 SE3         N/A
$$

SUPPLEMENTAL OBSERVATIONS (EAST)

CITY           SKY/WX    TMP DP  RH WIND       PRES   REMARKS
TEXARKANA        N/A     66  64  94 CALM        N/A
LINDEN           N/A     70  68  94 CALM        N/A
CADDO LAKE       N/A     70  68  94 CALM        N/A
LUFKIN           N/A     70  66  88 MISG        N/A
$$

SUPPLEMENTAL OBSERVATIONS ARE A COLLECTION OF AUTOMATED INSTRUMENTS
THAT ARE MAINTAINED BY A VARIETY OF FEDERAL AND STATE AGENCIES.
CERTAIN ELEMENTS...SUCH AS HUMIDITY VALUES AND SUSTAINED WIND
SPEEDS...MAY BE APPROXIMATED.